sat.trackr.live / text

‹ back to catalog

STARLINK-37587

NORAD 69837 · 2026-154U

PAYLOAD ACTIVE UNKNOWN

§ Identity

Operator
Country
US
Launch date
2026-07-05
Launch site
AFETR
Launch vehicle
Mass (kg)
RCS (m²)

Purposes: comms

External: N2YO · Heavens-Above · Gunter

§ Orbital elements

Epoch: 2026-09-20T04:29:22.548192Z

Period
93.85 min
Inclination
53.1563°
Eccentricity
0.0000649
Mean motion
15.34390682 rev/d
Perigee alt
462.3 km
Apogee alt
463.2 km
Semi-major
6,840.9 km
B*
-1.5398e-6
RAAN
332.9313°
Arg perigee
78.1175°
Mean anomaly
281.9900°
Rev number
1,319

§ Raw data

STARLINK-375871 69837U 26154U   26263.18706653 -.00000428  00000+0 -15398-5 0  99922 69837  53.1563 332.9313 0000649  78.1175 281.9900 15.34390682 13194

JSON: /api/v1/satellites/69837 · /tle

For live sub-satellite position, see the globe view (requires WebGL).

§ Visibility from observer

Set your observer location to see the next 7 days of passes ≥ 10°. The values pass through the URL so the page stays shareable.

No JS? Fill the form by hand. The geolocation button needs JavaScript.